Time,TemperatureF,DewpointF,PressureIn,WindDirection,WindDirectionDegrees,WindSpeedMPH,WindSpeedGustMPH,Humidity,HourlyPrecipIn,Conditions,Clouds,dailyrainin,SoftwareType,DateUTC
2013-11-21 00:07:00,32.7,32.0,30.01,SW,226,0.0,-999.0,96,-99.99,,,0.00,weatherlink.com 1.10,2013-11-21 06:07:00,
2013-11-21 00:22:00,32.8,32.0,30.01,SW,226,0.0,-999.0,96,-99.99,,,0.00,weatherlink.com 1.10,2013-11-21 06:22:00,
2013-11-21 00:37:00,32.8,32.0,30.01,SW,226,0.0,-999.0,96,-99.99,,,0.00,weatherlink.com 1.10,2013-11-21 06:37:00,
2013-11-21 00:52:00,32.7,32.0,30.01,SW,226,0.0,-999.0,96,-99.99,,,0.00,weatherlink.com 1.10,2013-11-21 06:52:00,
2013-11-21 01:07:00,32.7,32.0,30.01,SW,226,0.0,-999.0,96,-99.99,,,0.00,weatherlink.com 1.10,2013-11-21 07:07:00,
2013-11-21 01:22:00,32.5,32.0,30.01,SW,226,0.0,-999.0,96,-99.99,,,0.00,weatherlink.com 1.10,2013-11-21 07:22:00,
2013-11-21 01:37:00,32.5,32.0,30.02,SW,226,0.0,-999.0,96,-99.99,,,0.00,weatherlink.com 1.10,2013-11-21 07:37:00,
2013-11-21 01:52:00,32.5,32.0,30.02,SW,226,0.0,-999.0,96,-99.99,,,0.00,weatherlink.com 1.10,2013-11-21 07:52:00,
2013-11-21 02:07:00,32.5,32.0,30.03,SW,226,0.0,-999.0,96,-99.99,,,0.00,weatherlink.com 1.10,2013-11-21 08:07:00,
2013-11-21 02:22:00,32.5,32.0,30.04,SW,226,0.0,-999.0,96,-99.99,,,0.00,weatherlink.com 1.10,2013-11-21 08:22:00,
2013-11-21 02:37:00,32.5,32.0,30.04,SW,226,0.0,-999.0,96,-99.99,,,0.00,weatherlink.com 1.10,2013-11-21 08:37:00,
2013-11-21 02:52:00,32.5,32.0,30.04,SW,226,0.0,-999.0,96,-99.99,,,0.00,weatherlink.com 1.10,2013-11-21 08:52:00,
2013-11-21 03:08:00,32.5,32.0,30.04,SW,226,0.0,-999.0,96,-99.99,,,0.00,weatherlink.com 1.10,2013-11-21 09:08:00,
2013-11-21 03:23:00,32.7,32.0,30.04,SW,226,0.0,-999.0,96,-99.99,,,0.01,weatherlink.com 1.10,2013-11-21 09:23:00,
2013-11-21 03:38:00,32.7,32.0,30.04,SW,226,0.0,-999.0,96,-99.99,,,0.01,weatherlink.com 1.10,2013-11-21 09:38:00,
2013-11-21 03:52:00,32.7,32.0,30.04,SW,226,0.0,-999.0,96,-99.99,,,0.01,weatherlink.com 1.10,2013-11-21 09:52:00,
2013-11-21 04:08:00,32.7,32.0,30.04,SW,226,0.0,-999.0,96,-99.99,,,0.01,weatherlink.com 1.10,2013-11-21 10:08:00,
2013-11-21 04:23:00,32.7,32.0,30.04,SW,226,0.0,-999.0,96,-99.99,,,0.01,weatherlink.com 1.10,2013-11-21 10:23:00,
2013-11-21 04:38:00,32.5,32.0,30.04,SW,226,0.0,-999.0,96,-99.99,,,0.01,weatherlink.com 1.10,2013-11-21 10:38:00,
2013-11-21 04:53:00,32.7,32.0,30.04,SW,226,0.0,-999.0,96,-99.99,,,0.01,weatherlink.com 1.10,2013-11-21 10:53:00,
2013-11-21 05:08:00,32.5,32.0,30.04,SW,226,0.0,-999.0,96,-99.99,,,0.01,weatherlink.com 1.10,2013-11-21 11:08:00,
2013-11-21 05:23:00,32.7,32.0,30.06,SW,226,0.0,-999.0,96,-99.99,,,0.01,weatherlink.com 1.10,2013-11-21 11:23:00,
2013-11-21 05:38:00,32.7,32.0,30.06,SW,226,0.0,-999.0,96,-99.99,,,0.01,weatherlink.com 1.10,2013-11-21 11:38:00,
2013-11-21 05:53:00,32.7,32.0,30.06,SW,226,0.0,-999.0,96,-99.99,,,0.01,weatherlink.com 1.10,2013-11-21 11:53:00,
2013-11-21 06:08:00,32.7,32.0,30.07,SW,226,0.0,-999.0,96,-99.99,,,0.01,weatherlink.com 1.10,2013-11-21 12:08:00,
2013-11-21 06:23:00,32.7,32.0,30.07,SW,226,0.0,-999.0,96,-99.99,,,0.01,weatherlink.com 1.10,2013-11-21 12:23:00,
2013-11-21 06:38:00,32.7,32.0,30.07,SW,226,0.0,-999.0,96,-99.99,,,0.01,weatherlink.com 1.10,2013-11-21 12:38:00,
2013-11-21 06:53:00,32.7,32.0,30.07,SW,226,0.0,-999.0,96,-99.99,,,0.01,weatherlink.com 1.10,2013-11-21 12:53:00,
2013-11-21 07:08:00,32.7,32.0,30.08,SW,226,0.0,-999.0,96,-99.99,,,0.01,weatherlink.com 1.10,2013-11-21 13:08:00,
2013-11-21 07:23:00,32.7,32.0,30.09,SW,226,0.0,-999.0,96,-99.99,,,0.01,weatherlink.com 1.10,2013-11-21 13:23:00,
2013-11-21 07:38:00,32.7,32.0,30.09,SW,226,0.0,-999.0,96,-99.99,,,0.01,weatherlink.com 1.10,2013-11-21 13:38:00,
2013-11-21 07:53:00,32.8,32.0,30.10,SW,226,0.0,-999.0,96,-99.99,,,0.01,weatherlink.com 1.10,2013-11-21 13:53:00,
2013-11-21 08:08:00,32.8,32.0,30.10,SW,226,0.0,-999.0,96,-99.99,,,0.01,weatherlink.com 1.10,2013-11-21 14:08:00,
2013-11-21 08:23:00,32.9,32.0,30.11,SW,226,0.0,-999.0,97,-99.99,,,0.01,weatherlink.com 1.10,2013-11-21 14:23:00,
2013-11-21 08:38:00,33.1,32.0,30.11,SW,226,0.0,-999.0,97,-99.99,,,0.01,weatherlink.com 1.10,2013-11-21 14:38:00,
2013-11-21 08:53:00,33.4,33.0,30.11,SW,226,0.0,-999.0,97,-99.99,,,0.01,weatherlink.com 1.10,2013-11-21 14:53:00,
2013-11-21 09:08:00,33.7,33.0,30.11,SW,226,0.0,-999.0,97,-99.99,,,0.01,weatherlink.com 1.10,2013-11-21 15:08:00,
2013-11-21 09:23:00,34.1,33.0,30.13,SW,226,0.0,-999.0,97,-99.99,,,0.01,weatherlink.com 1.10,2013-11-21 15:23:00,
2013-11-21 09:38:00,34.4,34.0,30.13,SW,226,0.0,-999.0,97,-99.99,,,0.01,weatherlink.com 1.10,2013-11-21 15:38:00,
2013-11-21 09:53:00,34.6,34.0,30.13,SW,226,0.0,-999.0,97,-99.99,,,0.01,weatherlink.com 1.10,2013-11-21 15:53:00,
2013-11-21 10:09:00,34.7,34.0,30.13,SW,226,0.0,-999.0,97,-99.99,,,0.01,weatherlink.com 1.10,2013-11-21 16:09:00,
2013-11-21 10:24:00,34.7,34.0,30.14,SW,226,0.0,-999.0,97,-99.99,,,0.01,weatherlink.com 1.10,2013-11-21 16:24:00,
2013-11-21 10:39:00,34.9,34.0,30.14,SW,226,0.0,-999.0,97,-99.99,,,0.01,weatherlink.com 1.10,2013-11-21 16:39:00,
2013-11-21 10:54:00,34.9,34.0,30.13,NNW,327,0.0,-999.0,97,-99.99,,,0.01,weatherlink.com 1.10,2013-11-21 16:54:00,
2013-11-21 11:08:00,35.0,34.0,30.13,NNW,329,0.0,-999.0,97,-99.99,,,0.01,weatherlink.com 1.10,2013-11-21 17:08:00,
2013-11-21 11:23:00,35.0,34.0,30.13,NNW,329,0.0,-999.0,97,-99.99,,,0.01,weatherlink.com 1.10,2013-11-21 17:23:00,
2013-11-21 11:38:00,35.2,35.0,30.13,NNW,329,0.0,-999.0,97,-99.99,,,0.01,weatherlink.com 1.10,2013-11-21 17:38:00,
2013-11-21 11:53:00,35.0,34.0,30.14,NNW,329,0.0,-999.0,97,-99.99,,,0.01,weatherlink.com 1.10,2013-11-21 17:53:00,
2013-11-21 12:09:00,35.0,34.0,30.15,NNW,329,0.0,-999.0,97,-99.99,,,0.01,weatherlink.com 1.10,2013-11-21 18:09:00,
2013-11-21 12:24:00,35.0,34.0,30.15,NNW,329,0.0,-999.0,97,-99.99,,,0.01,weatherlink.com 1.10,2013-11-21 18:24:00,
2013-11-21 12:39:00,35.0,34.0,30.15,NNW,329,0.0,-999.0,97,-99.99,,,0.01,weatherlink.com 1.10,2013-11-21 18:39:00,
2013-11-21 12:54:00,35.0,34.0,30.15,NNW,329,0.0,-999.0,97,-99.99,,,0.01,weatherlink.com 1.10,2013-11-21 18:54:00,
2013-11-21 13:09:00,35.2,35.0,30.15,NNW,329,0.0,-999.0,97,-99.99,,,0.01,weatherlink.com 1.10,2013-11-21 19:09:00,
2013-11-21 13:24:00,35.2,35.0,30.15,NNW,329,0.0,-999.0,97,-99.99,,,0.01,weatherlink.com 1.10,2013-11-21 19:24:00,
2013-11-21 13:39:00,35.2,35.0,30.15,NNW,329,0.0,-999.0,97,-99.99,,,0.01,weatherlink.com 1.10,2013-11-21 19:39:00,
2013-11-21 13:54:00,35.3,35.0,30.16,NNW,329,0.0,-999.0,97,-99.99,,,0.01,weatherlink.com 1.10,2013-11-21 19:54:00,
2013-11-21 14:09:00,35.3,35.0,30.16,NNW,329,0.0,-999.0,98,-99.99,,,0.01,weatherlink.com 1.10,2013-11-21 20:09:00,
2013-11-21 14:24:00,35.5,35.0,30.16,North,5,1.0,-999.0,98,-99.99,,,0.01,weatherlink.com 1.10,2013-11-21 20:24:00,
2013-11-21 14:39:00,34.7,34.0,30.17,NE,53,0.0,-999.0,97,-99.99,,,0.01,weatherlink.com 1.10,2013-11-21 20:39:00,
2013-11-21 14:54:00,33.8,33.0,30.18,North,355,1.0,-999.0,97,-99.99,,,0.01,weatherlink.com 1.10,2013-11-21 20:54:00,
2013-11-21 15:09:00,33.2,33.0,30.18,North,11,1.0,-999.0,97,-99.99,,,0.01,weatherlink.com 1.10,2013-11-21 21:09:00,
2013-11-21 15:24:00,32.9,32.0,30.19,NNE,24,1.0,-999.0,96,-99.99,,,0.01,weatherlink.com 1.10,2013-11-21 21:24:00,
2013-11-21 15:39:00,32.5,32.0,30.20,North,5,1.0,-999.0,96,-99.99,,,0.01,weatherlink.com 1.10,2013-11-21 21:39:00,
2013-11-21 15:54:00,32.1,31.0,30.21,North,11,3.0,-999.0,96,-99.99,,,0.01,weatherlink.com 1.10,2013-11-21 21:54:00,
2013-11-21 16:10:00,31.8,31.0,30.21,NNW,338,2.0,-999.0,96,-99.99,,,0.01,weatherlink.com 1.10,2013-11-21 22:10:00,
2013-11-21 16:25:00,31.3,30.0,30.22,North,5,3.0,-999.0,96,-99.99,,,0.01,weatherlink.com 1.10,2013-11-21 22:25:00,
2013-11-21 16:40:00,31.0,30.0,30.23,North,355,5.0,-999.0,95,-99.99,,,0.01,weatherlink.com 1.10,2013-11-21 22:40:00,
2013-11-21 16:55:00,30.4,29.0,30.23,WNW,302,0.0,-999.0,94,-99.99,,,0.01,weatherlink.com 1.10,2013-11-21 22:55:00,
2013-11-21 17:10:00,30.1,28.0,30.25,WNW,292,3.0,-999.0,93,-99.99,,,0.01,weatherlink.com 1.10,2013-11-21 23:10:00,
2013-11-21 17:25:00,29.8,28.0,30.25,NNE,21,2.0,-999.0,92,-99.99,,,0.01,weatherlink.com 1.10,2013-11-21 23:25:00,
2013-11-21 17:40:00,29.3,27.0,30.26,NE,39,0.0,-999.0,92,-99.99,,,0.01,weatherlink.com 1.10,2013-11-21 23:40:00,
2013-11-21 17:55:00,29.0,27.0,30.25,SSW,196,2.0,-999.0,91,-99.99,,,0.01,weatherlink.com 1.10,2013-11-21 23:55:00,
2013-11-21 18:10:00,28.8,27.0,30.26,WNW,283,0.0,-999.0,91,-99.99,,,0.01,weatherlink.com 1.10,2013-11-22 00:10:00,
2013-11-21 18:25:00,28.5,26.0,30.27,North,360,7.0,-999.0,89,-99.99,,,0.01,weatherlink.com 1.10,2013-11-22 00:25:00,
2013-11-21 18:40:00,28.4,25.0,30.28,North,5,4.0,-999.0,88,-99.99,,,0.01,weatherlink.com 1.10,2013-11-22 00:40:00,
2013-11-21 18:55:00,28.2,25.0,30.29,North,355,1.0,-999.0,88,-99.99,,,0.01,weatherlink.com 1.10,2013-11-22 00:55:00,
2013-11-21 19:10:00,28.1,25.0,30.29,North,5,0.0,-999.0,87,-99.99,,,0.01,weatherlink.com 1.10,2013-11-22 01:10:00,
2013-11-21 19:25:00,27.9,24.0,30.30,North,5,3.0,-999.0,86,-99.99,,,0.01,weatherlink.com 1.10,2013-11-22 01:25:00,
2013-11-21 19:40:00,27.9,24.0,30.31,NNE,19,3.0,-999.0,85,-99.99,,,0.01,weatherlink.com 1.10,2013-11-22 01:40:00,
2013-11-21 19:55:00,27.9,24.0,30.31,North,349,1.0,-999.0,84,-99.99,,,0.01,weatherlink.com 1.10,2013-11-22 01:55:00,
2013-11-21 20:10:00,27.8,24.0,30.31,North,5,2.0,-999.0,84,-99.99,,,0.01,weatherlink.com 1.10,2013-11-22 02:10:00,
2013-11-21 20:25:00,27.8,24.0,30.31,North,10,1.0,-999.0,84,-99.99,,,0.01,weatherlink.com 1.10,2013-11-22 02:25:00,
2013-11-21 20:40:00,27.6,23.0,30.32,NNE,15,3.0,-999.0,84,-99.99,,,0.01,weatherlink.com 1.10,2013-11-22 02:40:00,
2013-11-21 20:55:00,27.6,23.0,30.33,NNW,336,4.0,-999.0,84,-99.99,,,0.01,weatherlink.com 1.10,2013-11-22 02:55:00,
2013-11-21 21:10:00,27.5,23.0,30.33,NNE,19,2.0,-999.0,84,-99.99,,,0.01,weatherlink.com 1.10,2013-11-22 03:10:00,
2013-11-21 21:25:00,27.2,24.0,30.34,NNE,15,0.0,-999.0,86,-99.99,,,0.01,weatherlink.com 1.10,2013-11-22 03:25:00,
2013-11-21 21:40:00,26.9,24.0,30.34,NNE,13,0.0,-999.0,87,-99.99,,,0.01,weatherlink.com 1.10,2013-11-22 03:40:00,
2013-11-21 21:55:00,26.6,24.0,30.35,WNW,290,1.0,-999.0,88,-99.99,,,0.01,weatherlink.com 1.10,2013-11-22 03:55:00,
2013-11-21 22:10:00,26.3,23.0,30.35,North,360,0.0,-999.0,88,-99.99,,,0.01,weatherlink.com 1.10,2013-11-22 04:10:00,
2013-11-21 22:25:00,26.1,23.0,30.35,NNE,14,4.0,-999.0,88,-99.99,,,0.01,weatherlink.com 1.10,2013-11-22 04:25:00,
2013-11-21 22:40:00,26.0,23.0,30.36,North,360,0.0,-999.0,89,-99.99,,,0.01,weatherlink.com 1.10,2013-11-22 04:40:00,
2013-11-21 22:55:00,25.8,23.0,30.36,North,11,3.0,-999.0,89,-99.99,,,0.01,weatherlink.com 1.10,2013-11-22 04:55:00,
2013-11-21 23:10:00,25.7,23.0,30.36,North,355,0.0,-999.0,89,-99.99,,,0.01,weatherlink.com 1.10,2013-11-22 05:10:00,
2013-11-21 23:25:00,25.6,23.0,30.37,NNE,20,0.0,-999.0,89,-99.99,,,0.01,weatherlink.com 1.10,2013-11-22 05:25:00,
2013-11-21 23:40:00,25.3,23.0,30.38,NNE,23,1.0,-999.0,89,-99.99,,,0.01,weatherlink.com 1.10,2013-11-22 05:40:00,
2013-11-21 23:56:00,25.1,22.0,30.39,North,360,0.0,-999.0,88,-99.99,,,0.01,weatherlink.com 1.10,2013-11-22 05:56:00,